CZ-6A DEB, 61395

Orbit data source: Space-Track

CZ-6A DEB, 61395 is space debris in LEO originally from a launch on Tue, 06 Aug 2024 UTC launched from the Taiyaun Space Center, China (TSC). Debris objects in space refer to the collection of defunct objects orbiting the Earth. Examples of debris include non-operational satellites, rocket bodies, and fragments generated from explosions, collisions, or faulty payload assembly.

Loading next visibility...
Identifier
61395, 2024-140XL
Orbit
LEO
Country
Flag of CNCN / PRC
Related business
Manufacturer
SAST
Mission
Spacecraft
Bus & Motor
Unknown
Mass
Unknown
Launch date (UTC)
2024-08-06 (2 years ago)
Launch vehicle
Unknown
Launch site
Taiyaun Space Center, China (TSC)
Object type
Payload
Rocket body
Debris
Shape & HBR
Unknown shape, 0.1 m
Radar Cross Section
Medium (>0.1 m² and <1 m²)

Expand to show TLE details & history
Last TLE update: 16 hours ago

TLE from 16 hours ago
0 CZ-6A DEB
1 61395U 24140XL  26171.29946431  .00000329  00000-0  15206-3 0  9991
2 61395  88.9653 271.7564 0057020 162.9558 197.3564 14.17725901 92471
Epoch: 2026-06-20T07:11Z
TLE epoch observation values (Epoch: 2026-06-20T07:11:13.716Z)
Latitude
0.00002°
Longitude
-104.56683°
Altitude
875.379 km
Speed
7.394 km/s
True Right ascension
18h 07m 01s
True Declination
0° 00' 00"
Sunlit
Object was in full shadow at epoch
Visualization orbit readout
Latitude
Unknown
Longitude
Unknown
Altitude
Unknown
Speed
Unknown
Apparent Right ascension
Unknown
Apparent Declination
Unknown
Sunlit
N/A
Visualization observer readout
Local Sidereal Time
10:17:13
Azimuth
Unknown
Elevation
Unknown
Doppler factor
Unknown
Orbital elements
Apogee altitude
871.109 km
Perigee altitude
788.908 km
Semi-major axis
7,208.145 km
Eccentricity
0.0057
Inclination
88.9653°
RAAN
271.7564°
Arg. of periapsis
162.9558°
True anomaly
197.1628°
Mean anomaly
197.3564°
Eccentric anomaly
197.25947°
Mean motion
3.54656 °/min
Orbital period
101.51 mins
BSTAR
0.00015206
Loading maneuver chart data...
Computing Atmospheric mass density...
Loading historical data...
Loading historical data...
Loading historical data...
Loading historical data...
Loading historical data...
Loading historical data...
Loading historical data...

Documentation

Showing up to 5 results
|